Regional Weather Roundup
Issued by NWS Upton, NY

Current Version | Previous Version | Text Only | Print | Product List | Glossary On
Versions: 1 2 3 4 5 6 7 8 9 10 11 12 13 14 15 16 17 18 19 20 21 22 23 24 25 26 27 28 29 30 31 32 33 34 35 36 37 38 39 40 41 42 43 44 45 46 47 48 49 50
769
ASUS41 KOKX 281204
RWROKX

REGIONAL WEATHER ROUNDUP
NATIONAL WEATHER SERVICE NEW YORK NY
800 AM EDT SUN AUG 28 2016

NOTE: "FAIR" INDICATES FEW OR NO CLOUDS BELOW 12,000 FEET WITH NO
SIGNIFICANT WEATHER AND/OR OBSTRUCTIONS TO VISIBILITY.

NYZ071-072-176-178-NJZ106-104-281300-
NEW YORK CITY METRO AREA

CITY           SKY/WX    TMP DP  RH WIND       PRES   REMARKS
Central Park   SUNNY     74  67  78 CALM      30.29S
LaGuardia APRT PTSUNNY   76  69  79 E6        30.26R
Kennedy INTL   MOSUNNY   76  69  79 E3        30.27R
Newark/Liberty MOSUNNY   75  68  78 N5        30.26R
Bronx Bot Gard   N/A     75  68  78 E1        30.29R
Wall St Helipt SUNNY     75  72  88 NE3       30.27S
Teterboro      MOSUNNY   71  63  75 N3        30.26R
$$

NYZ177-179-078>081-281300-
LONG ISLAND NEW YORK

CITY           SKY/WX    TMP DP  RH WIND       PRES   REMARKS
Farmingdale    SUNNY     73  67  81 CALM      30.27S
MacArthur/ISP  MOSUNNY   74  67  78 E6        30.27R
Shirley        SUNNY     71  68  90 CALM      30.28S
Riverhead      NOT AVBL
Westhampton    SUNNY     73  66  78 CALM      30.30R
Southampton      N/A     75  70  83 CALM      30.24S
Bridgehampton    N/A     68  66  94 CALM      30.27S
East Hampton   FAIR      70  65  85 CALM      30.27S
Montauk          N/A     73  65  75 E3        30.29S
$$

NYZ052-065-067-281300-
HUDSON VALLEY

CITY           SKY/WX    TMP DP  RH WIND       PRES   REMARKS
White Plains   SUNNY     72  68  87 E3        30.28R
Newburgh       SUNNY     66  61  82 CALM      30.30R
Montgomery     SUNNY     65  63  93 S3        30.28S
Poughkeepsie   SUNNY     66  62  87 CALM      30.27R
Albany         MOSUNNY   68  64  87 SW3       30.25S
$$

NJZ001-105-106-008-010-013-015-019>022-104-281300-
NEW JERSEY

CITY           SKY/WX    TMP DP  RH WIND       PRES   REMARKS
Newark/Liberty MOSUNNY   75  68  78 N5        30.26R
Teterboro      MOSUNNY   71  63  75 N3        30.26R
Caldwell       CLOUDY    68  63  84 CALM      30.29S
Morristown     MOSUNNY   64  63  94 CALM      30.28R
Somerville     SUNNY     66  62  87 CALM      30.26S
Linden         FAIR      72  66  81 CALM      30.28S
Sussex         SUNNY     63  61  93 CALM      30.29R
Abdover          N/A     63  61  93 CALM      30.29S
Trenton        SUNNY     67  66  97 N6        30.27R
Millville      SUNNY     70  69  97 N3        30.25R
Atlantic City  SUNNY     72  68  87 N3        30.24R
Wrightstown    MOSUNNY   68  68 100 N5        30.24R
Toms River     SUNNY     69  66  90 N3        30.26R
Belmar         SUNNY     73  67  81 NW3       30.28R
$$

PAZ047>061-062-071-281300-
EASTERN PENNSYLVANIA

CITY           SKY/WX    TMP DP  RH WIND       PRES   REMARKS
Philadelphia   MOSUNNY   75  69  81 NE3       30.26R
Allentown      SUNNY     66  61  84 CALM      30.28S
Scranton       SUNNY     70  61  73 CALM      30.28S
$$

CTZ002-004>006-009-010-012-RIZ004-006-007-MAZ004-011-015-281300-
SOUTHERN NEW ENGLAND
 IN CT

CITY           SKY/WX    TMP DP  RH WIND       PRES   REMARKS
Bradley INTL   PTSUNNY   69  65  86 S5        30.29S
Hartford       SUNNY     72  67  84 SE3       30.28S
Danbury        SUNNY     65  61  87 CALM      30.30S
Wtrbury/Oxford MOSUNNY   68  63  83 S6        30.31R
Bridgeport     SUNNY     76  66  71 SE3       30.28R
Meriden        SUNNY     71  66  84 CALM      30.29R
New Haven      SUNNY     72  69  90 CALM      30.28S
Chester        FAIR      70  68  94 CALM      30.30S
Groton         SUNNY     74  66  76 CALM      30.28S
Wilimantic     SUNNY     66  63  90 CALM      30.31R

 IN RI

CITY           SKY/WX    TMP DP  RH WIND       PRES   REMARKS
Providence     MOSUNNY   69  63  81 CALM      30.30R
Block Island   SUNNY     72  64  76 E3        30.29S
Westerly       SUNNY     68  62  81 CALM      30.30R
 IN MA

CITY           SKY/WX    TMP DP  RH WIND       PRES   REMARKS
Boston         PTSUNNY   70  65  84 SE5       30.29S
Worcester      SUNNY     66  60  81 SW7       30.32R
Westfield      PTSUNNY   66  64  93 CALM      30.29S
Provincetown   SUNNY     72  64  76 NE5       30.30R
Nantucket      SUNNY     71  64  78 N6        30.28R
$$

ANZ330-335-338-340-345-350-353-355-281300-
COASTAL MARINE OBSERVATIONS


STATION/POSITION TIME  SKY/WX   TEMP    WIND        PRES    VSBY  WAVE
                                AIR SEA DIR/SP/G                  HT/PER
                 (UTC)          (F)     (DEG/KT/KT) (MB)    (MI)  (FT/S)
NY HARB ENTRANCE 1050            76 75  120/  4/  6 1024.2          2/ 8
20S FIRE ISLAND  1050            76 74  120/ 10/ 10 1023.8          3/ 9
GREAT SOUTH BAY  1115            76 79  100/  6/  8   N/A
23 SSW MONTAUK P 1050            75 77  140/  8/ 10 1025.0          3/ 9
15 E BARNEGAT LI 1100               76                N/A           3/ 8
HUDSON CANYON    1050            77 78              1023.0          3/ 6
KINGS POINT      1100            71 76              1024.6
EXECUTION ROCKS  1100            73      30/  4/  6   N/A
CENTRAL LI SOUND 1100            73 76  110/  6/  6   N/A           0
EASTERN LI SOUND 1100            71 71   50/  6/  8   N/A
ROBBINS REEF     1112            75      90/  4/  4 1024.0
$$


>>>>>>>>>>>>>>>>>>>>>>>>>>>> KEY <<<<<<<<<<<<<<<<<<<<<<<<<<<
>                                                          <
>     SKY/WX - Sky Condition/Present Weather               <
>     TMP    - Temperature in Fahrenheit                   <
>     DP     - Dew Point in Fahrenheit                     <
>     RH     - Relative Humidity in Percent                <
>     WIND   - Direction (from) and Speed in MPH           <
>     PRES   - Mean Sea Level Pressure (inches of Hg)      <
>     WCI    - Wind Chill Index                            <
>     VSB    - VISIBILITY IN MILES                         <
>     HX     - HEAT INDEX                                  <
>     TC     - TEMPERATURE IN CELSIUS                      <
>     VRB    - VARIABLE WIND DIRECTION                     <
>                                                          <
>>>>>>>>>>>>>>>>>>>>>>>>>>>> KEY <<<<<<<<<<<<<<<<<<<<<<<<<<<




USA.gov is the U.S. government's official web portal to all federal, state and local government web resources and services.